Location: Bothwell
(42.3833°S, 147.0000°E)
Time: 15:08:37
(UTC+11:00)

UWE-3 - Visible Passes

Search period start: 01 December 2023 00:00
Search period end: 11 December 2023 00:00
Orbit: 573 x 662 km, 97.8° (Epoch: 29 November)

Date Brightness Start Highest point End Pass type
(mag) Time Alt. Az. Time Alt. Az. Time Alt. Az.
01 Dec ? 01:44:33 10° E 01:46:53 15° ESE 01:49:16 10° SSE visible
01 Dec ? 03:21:12 39° NNW 03:22:28 56° W 03:26:46 10° SSW visible
02 Dec ? 02:00:47 13° ENE 02:03:16 21° ESE 02:06:32 10° SSE visible
02 Dec ? 03:37:54 30° NW 03:39:05 36° W 03:43:08 10° SSW visible
03 Dec ? 02:17:27 19° ENE 02:19:40 30° ESE 02:23:30 10° S visible
03 Dec ? 03:54:35 22° WNW 03:55:44 24° W 03:59:20 10° SW visible
04 Dec ? 02:34:09 27° NE 02:36:05 44° ESE 02:40:18 10° S visible
04 Dec ? 04:11:14 15° WNW 04:12:25 17° W 04:15:14 10° SW visible
05 Dec ? 02:50:47 34° NNE 02:52:33 68° ESE 02:56:58 10° S visible
05 Dec ? 04:27:59 10° WNW 04:29:08 11° W 04:30:18 10° WSW visible
06 Dec ? 01:32:27 10° ESE 01:33:42 11° ESE 01:34:57 10° SE visible
06 Dec ? 03:07:27 38° N 03:09:03 79° W 03:13:30 10° SSW visible
07 Dec ? 01:47:18 10° E 01:49:58 16° ESE 01:52:41 10° SSE visible
07 Dec ? 03:24:05 35° NNW 03:25:34 51° W 03:29:56 10° SSW visible
08 Dec ? 02:03:37 14° ENE 02:06:17 23° ESE 02:09:47 10° SSE visible
08 Dec ? 03:40:43 27° NW 03:42:08 34° W 03:46:13 10° SSW visible
09 Dec ? 02:20:15 19° ENE 02:22:37 33° ESE 02:26:38 10° S visible
09 Dec ? 03:57:21 20° WNW 03:58:44 23° W 04:02:18 10° SW visible
10 Dec ? 02:36:52 26° NE 02:38:59 49° ESE 02:43:20 10° S visible
10 Dec ? 04:13:58 14° WNW 04:15:21 16° W 04:18:04 10° SW visible
